Temp
61 53 48 49 53 54 51 48 46 47 54 49 47 47 51 51 49 46 44 45 45 47 51 51 51 51 50 49 49 49 48 48 46 44 43 42 41 43 44 45 47 47 47 47
55 50 56 60 58 55 52 48 47 49 54 49 47 47 51 50 51 51 48 45 46 46 46 46 49 49 49 49 48 47 49 48 47 45 43 43 43 43 44 45 46 47 47 47
51 55 62 60 54 54 50 47 46 46 50 49 47 43 44 49 48 50 49 48 48 49 46 47 47 47 47 45 46 48 48 48 47 46 45 44 43 43 43 43 43 46 47 47
52 58 58 54 54 54 45 51 52 51 45 39 45 36 42 45 46 48 47 47 48 48 50 50 50 46 46 47 46 48 48 49 48 46 44 42 40 39 41 42 43 44 46 46
49 52 51 52 52 55 50 53 49 48 42 39 41 37 41 44 45 45 45 47 48 48 50 50 50 51 50 48 45 47 47 48 47 45 44 41 40 40 41 41 42 43 44 45
50 56 53 51 55 54 54 49 48 45 40 34 43 41 40 43 49 46 46 49 50 49 48 50 50 50 49 46 46 46 46 46 46 45 44 42 40 40 40 40 40 40 42 43
49 49 51 55 48 51 49 41 35 36 34 36 44 41 45 51 53 53 51 48 48 49 48 48 47 46 46 45 45 46 45 45 45 44 44 43 42 41 40 40 39 40 40 41
43 42 47 52 47 44 44 42 35 33 33 37 44 37 47 50 50 51 52 50 49 48 49 48 48 46 46 46 45 46 45 44 45 44 44 43 43 41 41 41 41 40 41 41
44 43 49 51 50 48 44 39 44 39 37 35 38 46 50 48 47 48 49 49 47 48 47 49 47 48 47 46 46 46 44 45 45 44 43 43 43 42 41 42 41 41 42 45
48 42 48 49 49 47 43 47 39 37 31 31 37 41 44 46 49 49 48 48 47 48 47 47 49 48 48 48 47 46 46 45 45 44 43 44 43 43 42 42 42 42 42 43
48 47 40 45 43 43 42 41 41 40 36 30 30 39 49 51 53 50 48 49 49 48 49 49 49 48 49 48 47 47 46 45 44 44 43 43 43 43 43 42 42 43 43 43
51 46 40 42 45 47 45 44 43 30 35 32 27 37 53 50 53 54 54 53 50 52 50 48 48 47 47 47 46 47 47 46 46 45 44 43 43 43 42 42 43 43 42 43
50 44 37 37 40 43 41 44 45 41 34 33 27 38 55 51 53 55 55 54 52 51 48 47 46 47 48 47 46 47 47 47 47 46 44 43 42 41 41 42 43 43 43 43
54 45 43 38 43 45 39 43 43 42 26 30 34 43 56 53 52 53 55 55 52 51 52 49 47 47 47 48 48 47 47 48 47 47 44 42 41 41 41 42 43 43 43 42
49 42 43 47 50 48 47 46 43 38 42 38 50 42 53 52 52 55 54 54 53 51 49 50 49 47 47 46 48 48 48 47 47 46 45 44 42 42 43 42 42 43 42 43
47 43 43 43 51 50 46 47 45 44 46 42 45 45 57 58 53 52 51 53 53 51 53 52 51 49 48 49 48 49 48 47 47 47 45 44 43 43 42 42 42 42 41 41
44 42 39 36 45 44 41 44 46 46 44 46 40 52 52 51 53 52 51 50 52 54 52 50 51 51 52 51 51 48 47 48 47 46 46 45 45 43 42 42 42 41 40 39
45 42 35 31 38 31 49 50 50 49 51 49 49 50 51 51 49 50 50 50 51 52 54 52 52 51 50 48 48 49 46 47 47 45 45 46 45 44 43 42 41 40 39 39
50 41 31 31 31 42 51 53 49 47 49 52 51 52 50 48 46 46 51 53 52 51 51 52 51 50 48 48 49 48 45 46 46 46 46 46 46 44 43 42 40 39 38 39
46 43 38 28 27 30 45 47 50 48 40 52 52 51 48 46 41 45 50 51 53 53 51 51 52 49 47 47 47 47 46 45 46 47 46 46 45 45 43 42 40 40 39 40
35 30 31 31 28 37 49 50 49 37 43 49 51 49 49 46 47 51 51 52 51 52 53 52 50 48 47 46 46 47 45 45 49 47 45 44 45 44 43 41 40 40 40 40
36 32 28 28 27 33 51 47 46 49 47 50 49 49 49 48 49 50 51 51 52 52 52 52 49 48 47 46 46 45 44 48 44 44 45 45 43 46 45 40 39 40 39 38
38 42 36 38 41 52 51 52 51 51 51 50 49 51 51 49 48 50 50 50 51 52 51 51 49 48 47 46 46 45 47 44 44 43 44 43 44 44 43 40 38 38 38 37
45 48 42 42 49 52 55 53 53 53 53 53 53 52 50 49 50 49 49 49 50 51 51 50 48 46 46 46 46 48 46 45 45 44 43 42 42 42 41 42 42 40 39 38
47 47 45 44 50 54 55 54 56 54 52 53 54 54 54 52 51 50 49 49 50 50 50 49 48 46 46 46 45 46 45 46 45 45 43 43 43 45 41 42 41 42 42 43
47 46 44 47 53 57 52 54 54 53 53 55 53 52 53 52 52 50 49 50 50 50 49 48 47 46 47 45 47 45 45 47 46 44 43 43 42 41 41 41 40 47 47 48
MSLP
1016.55 1017.37 1018.04 1018.16 1018.16 1018.23 1018.39 1018.71 1019.20 1019.57 1019.83 1020.60 1020.86 1021.19 1021.39 1022.16 1022.96 1023.77 1024.31 1024.66 1025.02 1024.89 1024.88 1025.37 1025.70 1026.13 1026.70 1027.00 1027.28 1027.48 1027.68 1027.80 1027.87 1028.23 1028.51 1028.73 1028.68 1028.71 1028.52 1028.36 1028.15 1028.09 1027.98 1027.92
1017.04 1017.51 1017.71 1017.68 1017.82 1017.94 1018.17 1018.58 1018.98 1019.39 1019.77 1020.44 1020.39 1020.34 1020.22 1020.86 1021.43 1022.07 1023.00 1023.71 1024.07 1024.51 1024.97 1025.40 1025.63 1025.83 1026.19 1026.67 1026.82 1027.10 1027.28 1027.48 1027.74 1027.98 1028.31 1028.44 1028.48 1028.39 1028.34 1028.30 1028.08 1027.93 1027.83 1027.77
1017.21 1017.56 1017.58 1017.64 1017.77 1017.97 1018.28 1018.73 1019.08 1019.62 1019.84 1019.93 1020.44 1019.98 1019.48 1019.89 1020.64 1021.50 1022.02 1022.42 1023.06 1023.53 1024.30 1024.85 1025.13 1025.36 1025.61 1026.16 1026.52 1026.63 1026.86 1027.24 1027.46 1027.63 1027.87 1028.01 1028.20 1028.23 1028.36 1028.35 1028.13 1027.80 1027.63 1027.52
1017.90 1018.14 1018.10 1018.10 1018.24 1018.34 1018.74 1018.97 1019.27 1019.70 1020.35 1020.59 1020.60 1020.89 1019.38 1019.43 1020.13 1020.80 1021.37 1021.74 1022.30 1022.66 1023.16 1023.57 1024.06 1024.70 1025.08 1025.56 1025.90 1026.19 1026.53 1026.85 1027.14 1027.39 1027.76 1027.94 1028.31 1028.34 1028.22 1028.08 1027.89 1027.60 1027.40 1027.35
1018.24 1018.29 1018.45 1018.74 1018.99 1019.07 1019.33 1019.42 1019.68 1020.06 1020.61 1021.00 1020.76 1021.32 1018.86 1019.14 1019.80 1019.82 1020.37 1020.87 1021.35 1021.72 1022.24 1022.96 1023.39 1023.79 1024.25 1024.85 1025.42 1025.84 1026.21 1026.60 1027.00 1027.27 1027.50 1027.78 1028.11 1028.11 1027.96 1027.86 1027.70 1027.48 1027.34 1027.15
1018.44 1018.74 1019.04 1019.24 1019.30 1019.44 1019.84 1020.19 1020.41 1020.55 1021.01 1021.39 1020.17 1020.54 1018.96 1018.59 1017.87 1018.23 1018.97 1019.76 1020.25 1020.86 1021.60 1022.07 1022.64 1023.23 1023.90 1024.46 1025.00 1025.48 1025.97 1026.38 1026.71 1027.08 1027.36 1027.54 1027.76 1027.82 1027.91 1027.81 1027.63 1027.49 1027.35 1027.15
1018.99 1019.26 1019.46 1019.60 1019.91 1020.03 1020.24 1020.69 1021.34 1021.73 1021.68 1020.90 1019.80 1019.90 1017.54 1016.60 1016.51 1016.72 1017.54 1018.67 1019.48 1020.00 1020.75 1021.67 1022.28 1023.08 1023.70 1024.20 1024.72 1025.22 1025.72 1026.16 1026.35 1026.72 1026.97 1027.13 1027.28 1027.38 1027.56 1027.48 1027.43 1027.37 1027.25 1027.07
1019.17 1019.71 1020.12 1020.09 1020.20 1020.40 1020.58 1020.89 1021.50 1021.97 1021.99 1020.93 1019.87 1018.60 1016.14 1015.77 1015.93 1016.09 1016.52 1017.49 1018.82 1019.65 1020.10 1020.67 1021.24 1022.08 1022.91 1023.62 1024.22 1024.75 1025.27 1025.76 1025.93 1026.17 1026.41 1026.54 1026.70 1026.87 1026.92 1026.87 1026.91 1026.92 1026.81 1026.72
1018.75 1019.60 1020.23 1020.51 1020.71 1020.94 1020.77 1021.08 1021.30 1021.57 1021.70 1021.57 1019.48 1017.34 1015.86 1015.62 1015.95 1016.46 1017.00 1017.75 1018.37 1018.99 1019.41 1019.90 1020.52 1021.05 1021.76 1022.55 1023.15 1023.78 1024.51 1025.02 1025.20 1025.51 1025.83 1026.00 1026.11 1026.26 1026.41 1026.39 1026.35 1026.40 1026.13 1026.08
1018.34 1019.35 1020.24 1020.66 1020.88 1021.05 1021.20 1021.50 1021.69 1022.14 1022.51 1021.96 1019.70 1017.76 1016.16 1015.71 1015.73 1016.44 1017.11 1017.62 1018.04 1018.37 1018.76 1019.32 1019.88 1020.39 1020.93 1021.53 1022.27 1023.02 1023.52 1024.09 1024.48 1024.90 1025.19 1025.42 1025.54 1025.68 1025.80 1025.91 1025.98 1025.88 1025.69 1025.68
1018.23 1019.06 1020.59 1020.88 1020.91 1020.70 1021.22 1021.44 1022.01 1022.38 1022.70 1022.49 1021.07 1017.90 1015.32 1014.95 1014.83 1015.64 1016.42 1017.04 1017.39 1017.99 1018.27 1018.67 1019.15 1019.73 1020.22 1020.85 1021.47 1022.05 1022.78 1023.42 1023.89 1024.26 1024.57 1024.80 1024.97 1025.18 1025.30 1025.42 1025.45 1025.38 1025.19 1025.21
1018.42 1019.16 1020.25 1020.57 1020.50 1020.43 1020.37 1020.69 1021.35 1023.03 1023.19 1022.73 1021.48 1017.81 1014.89 1014.36 1014.21 1014.68 1015.07 1015.58 1016.20 1016.75 1017.27 1017.88 1018.41 1019.04 1019.75 1020.26 1020.85 1021.33 1021.83 1022.33 1022.74 1023.19 1023.70 1024.04 1024.38 1024.66 1024.79 1024.87 1024.89 1024.78 1024.89 1024.77
1018.84 1019.49 1020.18 1020.48 1020.68 1020.53 1020.71 1020.60 1020.83 1021.84 1022.79 1022.82 1021.72 1017.75 1014.89 1014.30 1014.33 1014.60 1015.07 1015.16 1015.51 1015.92 1016.56 1017.31 1018.04 1018.45 1018.94 1019.50 1020.04 1020.59 1021.08 1021.47 1021.93 1022.39 1022.90 1023.38 1023.78 1024.12 1024.24 1024.33 1024.30 1024.27 1024.35 1024.38
1019.10 1019.46 1019.54 1019.52 1019.20 1019.02 1019.80 1020.03 1020.71 1021.23 1022.16 1021.73 1019.88 1017.50 1015.13 1014.55 1014.63 1014.52 1014.68 1014.57 1014.91 1015.15 1015.55 1016.15 1017.16 1017.58 1018.11 1018.59 1019.14 1019.74 1020.34 1020.82 1021.32 1021.83 1022.32 1022.74 1023.03 1023.34 1023.56 1023.72 1023.80 1023.82 1023.81 1023.99
1019.63 1019.90 1019.52 1019.06 1018.71 1018.64 1018.60 1019.14 1019.77 1020.62 1019.88 1019.85 1017.49 1017.22 1014.81 1014.62 1014.51 1014.32 1014.26 1014.31 1014.41 1014.58 1015.09 1015.43 1015.98 1016.65 1017.28 1017.88 1018.37 1018.90 1019.42 1020.05 1020.54 1021.12 1021.68 1021.97 1022.27 1022.61 1022.90 1023.15 1023.31 1023.36 1023.39 1023.47
1019.81 1019.83 1019.45 1019.17 1018.46 1018.35 1017.98 1018.06 1018.46 1018.62 1018.45 1018.18 1017.10 1016.12 1014.33 1013.96 1013.89 1014.08 1014.22 1014.07 1013.99 1013.83 1013.95 1014.38 1015.00 1015.74 1016.33 1016.79 1017.38 1017.97 1018.53 1019.06 1019.66 1020.27 1020.73 1021.25 1021.70 1022.12 1022.36 1022.55 1022.73 1022.92 1023.00 1023.03
1019.89 1020.36 1020.39 1019.77 1018.86 1018.42 1017.39 1016.38 1016.48 1016.45 1016.26 1016.19 1016.10 1013.92 1013.74 1013.75 1014.07 1014.05 1014.08 1013.87 1013.66 1013.56 1013.48 1013.82 1014.19 1014.50 1015.02 1015.56 1016.13 1016.87 1017.48 1018.20 1018.89 1019.38 1019.87 1020.37 1020.80 1021.26 1021.61 1021.93 1022.20 1022.39 1022.57 1022.58
1019.53 1020.47 1020.71 1020.65 1019.77 1018.36 1015.39 1014.66 1014.45 1014.71 1014.24 1014.37 1013.98 1013.11 1013.01 1013.31 1013.62 1013.90 1014.09 1013.95 1013.57 1013.50 1013.28 1013.23 1013.41 1013.75 1014.07 1014.53 1015.25 1015.99 1016.71 1017.42 1018.00 1018.51 1018.96 1019.40 1020.02 1020.48 1020.78 1021.21 1021.53 1021.78 1022.01 1022.14
1018.66 1020.01 1021.57 1021.64 1020.43 1017.54 1015.58 1014.24 1013.99 1013.99 1013.14 1012.71 1012.78 1012.61 1012.82 1013.19 1013.44 1013.46 1013.62 1013.75 1013.53 1013.39 1013.34 1013.03 1012.73 1012.81 1013.28 1013.79 1014.32 1015.18 1016.09 1016.64 1017.24 1017.51 1017.94 1018.47 1019.07 1019.72 1020.19 1020.57 1020.84 1021.13 1021.45 1021.58
1019.18 1019.83 1021.06 1022.04 1021.11 1018.18 1014.70 1013.57 1013.34 1013.33 1012.64 1011.91 1011.85 1012.13 1012.62 1013.21 1013.94 1013.78 1013.45 1013.25 1013.21 1013.19 1013.21 1013.03 1012.65 1012.75 1013.12 1013.35 1013.85 1014.60 1015.13 1015.78 1016.22 1016.60 1017.06 1017.64 1018.27 1018.86 1019.32 1019.69 1020.14 1020.36 1020.64 1020.82
1019.51 1020.86 1021.00 1021.07 1020.11 1016.81 1014.24 1013.45 1013.49 1013.71 1012.45 1011.76 1011.83 1012.11 1012.69 1013.26 1013.22 1013.05 1013.28 1013.15 1012.79 1012.64 1012.74 1012.75 1012.76 1013.06 1012.94 1013.21 1013.69 1014.26 1014.64 1014.76 1014.94 1015.73 1016.40 1017.01 1017.49 1018.00 1018.43 1018.93 1019.38 1019.70 1020.02 1020.21
1017.92 1019.20 1019.89 1020.04 1019.35 1016.04 1012.95 1013.57 1013.38 1012.22 1011.80 1011.84 1011.93 1012.09 1012.43 1012.72 1012.93 1013.03 1013.11 1013.12 1012.89 1012.82 1012.53 1012.42 1012.60 1012.82 1012.89 1013.29 1013.66 1013.96 1014.04 1014.09 1014.73 1015.34 1015.92 1016.39 1016.84 1017.23 1017.72 1018.25 1018.70 1019.04 1019.42 1019.72
1015.74 1014.98 1015.99 1016.00 1014.37 1012.38 1011.89 1011.42 1011.33 1011.68 1011.86 1011.84 1011.90 1011.93 1012.12 1012.55 1012.79 1012.88 1012.96 1013.01 1012.87 1012.77 1012.70 1012.66 1012.62 1012.48 1012.49 1012.77 1013.15 1013.50 1013.32 1013.89 1014.35 1014.89 1015.26 1015.70 1016.17 1016.64 1017.02 1017.59 1018.07 1018.51 1018.77 1019.02
1013.54 1013.37 1013.55 1013.70 1012.27 1011.74 1010.95 1010.64 1010.74 1010.88 1011.22 1011.33 1011.49 1011.71 1012.09 1012.46 1012.55 1012.66 1012.87 1012.88 1012.74 1012.43 1012.41 1012.36 1012.48 1012.59 1012.54 1012.32 1012.38 1012.38 1012.81 1013.25 1013.86 1014.24 1014.57 1015.02 1015.56 1016.06 1016.48 1016.80 1017.13 1017.54 1017.81 1018.11
1012.04 1012.17 1012.07 1011.49 1010.65 1010.45 1010.13 1010.07 1010.07 1010.00 1010.39 1010.96 1011.18 1011.39 1011.64 1012.00 1012.11 1012.33 1012.41 1012.36 1012.15 1012.00 1011.86 1012.01 1012.10 1011.92 1011.69 1011.91 1011.92 1011.80 1012.04 1012.54 1013.01 1013.41 1013.81 1014.27 1014.76 1015.22 1015.65 1015.94 1016.21 1016.46 1016.50 1016.76
1010.70 1010.44 1010.34 1009.38 1009.25 1009.16 1009.39 1009.42 1009.62 1010.05 1010.25 1010.46 1010.79 1010.94 1011.05 1011.48 1011.75 1011.91 1012.12 1011.84 1011.65 1011.47 1011.35 1011.40 1011.50 1011.55 1011.18 1011.18 1011.10 1011.26 1011.52 1011.69 1012.06 1012.58 1012.95 1013.37 1013.91 1014.40 1014.79 1015.24 1015.62 1015.63 1015.70 1015.92
Wind_Speed
3 6 1 2 3 2 2 2 3 1 3 3 7 8 9 14 9 9 10 10 11 11 10 9 9 9 8 6 6 5 6 4 2 3 2 2 1 1 1 1 1 1 1 2
4 2 3 2 2 1 1 3 4 1 4 4 6 11 11 15 18 16 13 11 11 8 7 8 9 9 9 9 9 7 7 6 4 3 2 2 3 3 1 2 1 1 1 2
5 4 1 0 2 2 2 1 1 2 2 3 6 9 3 6 5 7 8 8 9 13 12 11 11 11 9 9 9 9 8 7 5 5 2 0 1 1 1 2 2 3 3 1
3 2 1 1 1 1 2 1 2 3 5 2 4 7 6 5 8 10 11 10 10 11 12 16 15 10 10 9 8 8 8 7 6 6 3 3 3 2 3 3 2 4 4 3
3 2 1 1 1 3 3 2 1 1 0 3 2 3 9 3 7 10 13 12 11 11 14 16 14 14 11 9 9 8 8 7 7 6 5 3 2 2 1 1 3 3 3 3
2 1 3 1 1 1 1 3 2 3 3 2 5 5 8 6 9 5 7 13 13 11 10 11 12 10 9 8 8 8 8 7 7 7 6 6 6 3 2 3 3 3 3 3
1 0 1 1 1 3 3 4 4 3 3 6 1 2 12 7 6 8 11 12 12 11 11 10 12 10 9 10 9 8 8 7 8 8 7 8 7 6 6 5 4 3 2 2
4 5 0 1 1 2 2 5 6 3 2 5 4 7 8 1 1 4 6 10 10 10 10 13 14 13 12 11 10 9 9 7 8 8 8 7 8 5 5 5 4 4 3 4
2 1 0 2 2 2 1 1 3 2 2 2 5 7 5 1 2 1 5 8 11 11 11 14 11 14 13 13 13 12 9 9 9 9 7 7 7 7 6 7 5 4 4 3
2 1 3 1 1 1 2 2 1 2 1 5 6 6 6 5 10 7 8 9 9 9 10 11 12 14 13 12 12 11 11 11 9 8 7 7 7 7 7 6 6 6 6 4
2 4 1 2 5 6 1 2 2 2 5 5 3 8 6 6 7 10 11 11 11 10 11 12 12 11 13 10 11 13 11 10 9 8 7 8 7 7 7 6 6 6 5 5
3 5 3 6 2 2 3 5 6 6 4 2 5 10 5 3 5 9 11 12 10 12 12 11 12 11 11 12 11 13 12 12 11 10 8 8 7 7 7 6 7 6 6 5
3 2 2 5 2 3 4 4 4 5 4 5 6 9 3 4 6 5 7 8 10 11 10 9 9 13 13 12 11 12 12 12 11 10 9 8 8 7 8 7 7 6 6 5
1 3 7 7 6 5 5 5 5 6 5 5 9 9 15 8 8 9 9 10 9 11 14 13 11 12 12 13 12 12 11 11 10 10 9 9 9 8 7 7 7 6 6 5
4 5 3 6 6 5 6 6 9 10 9 9 17 9 17 6 8 10 6 7 8 10 10 13 14 12 12 11 12 11 11 11 10 11 10 10 8 7 7 7 7 6 6 6
2 4 2 4 7 8 10 10 10 14 11 10 13 21 18 18 5 6 9 8 10 9 13 13 12 12 14 15 14 13 12 12 11 12 12 9 8 7 8 7 7 6 7 6
8 5 3 6 6 4 12 11 12 10 7 9 9 18 7 7 8 6 9 8 8 7 8 10 13 15 14 15 14 15 13 11 12 12 11 10 9 9 8 7 7 7 7 6
7 5 4 5 2 8 10 4 6 13 12 12 9 9 7 5 3 5 2 5 8 7 7 8 10 10 11 10 11 10 10 13 13 12 12 11 10 10 8 8 8 7 5 7
5 6 0 4 5 9 16 10 8 8 12 9 14 9 2 2 4 4 2 4 4 5 7 7 9 9 9 12 12 12 11 12 12 14 13 12 11 10 9 9 8 6 5 5
6 6 6 3 4 8 7 2 2 3 9 6 7 7 4 3 2 5 5 5 6 6 6 8 7 4 7 9 10 12 13 13 15 14 13 11 10 11 11 10 8 6 5 6
4 1 8 5 6 10 10 5 2 5 8 4 6 5 6 5 6 5 6 7 4 4 6 6 4 5 8 7 9 11 11 15 14 9 9 9 10 10 9 8 6 6 6 6
10 10 6 4 3 13 8 5 9 8 1 3 3 4 5 5 5 5 5 6 6 7 6 4 4 5 6 6 8 9 13 11 7 9 10 10 10 9 7 9 7 6 6 6
7 11 9 12 11 6 8 7 7 5 5 4 4 5 4 4 4 4 4 5 6 7 7 5 6 7 6 7 8 10 11 8 9 9 10 10 9 10 7 9 7 5 6 5
5 6 6 4 6 10 9 6 6 8 8 6 5 5 3 5 5 6 5 6 5 5 6 5 6 7 8 7 9 12 7 8 9 11 10 8 10 9 8 7 7 7 7 6
7 8 7 5 6 5 6 7 7 9 6 5 6 6 7 6 7 7 6 8 7 7 5 5 7 8 11 7 9 9 9 10 10 10 9 10 9 11 9 9 8 8 8 9
7 8 7 8 7 7 4 6 6 7 6 7 6 5 6 6 9 6 7 8 7 8 6 6 7 8 11 8 10 8 9 12 12 10 9 9 8 8 7 8 7 16 16 18
Wind_Direction
227 70 178 205 165 182 221 258 302 162 204 190 232 250 226 200 197 206 210 204 201 201 203 176 165 153 155 166 169 185 152 176 111 73 69 53 63 244 257 253 146 78 319 343
28 164 207 177 189 60 318 306 320 115 199 181 279 264 245 179 203 200 198 208 203 201 169 166 166 167 169 183 191 185 181 170 162 139 163 169 191 225 198 242 219 264 282 317
166 201 189 143 324 310 39 242 113 232 283 259 357 300 239 194 180 202 215 197 200 187 174 178 178 184 181 187 191 188 180 173 167 160 143 157 4 14 33 284 283 274 265 266
74 293 350 340 316 42 286 17 32 356 42 267 113 288 296 196 199 207 212 210 204 194 181 182 184 184 181 194 182 179 172 171 164 165 149 157 181 200 222 220 233 280 270 264
248 179 247 302 3 343 242 29 6 348 357 21 274 87 267 94 238 221 216 216 210 202 183 188 189 185 190 171 173 175 170 168 161 159 166 155 190 215 247 273 285 301 290 281
141 335 46 119 112 69 31 345 4 16 81 10 232 138 278 194 213 237 203 210 203 196 196 186 186 172 177 168 166 169 169 182 172 172 183 183 200 227 265 280 286 291 277 302
28 44 67 76 32 349 57 65 343 353 5 221 350 95 245 243 257 218 198 199 199 189 180 176 171 175 171 171 172 170 172 190 178 184 190 199 205 209 220 242 245 255 278 277
176 312 204 341 151 172 227 138 153 273 249 272 359 238 255 301 92 37 176 180 179 189 186 183 178 175 174 174 174 176 178 190 189 191 202 206 207 203 217 232 231 229 232 248
37 326 256 46 354 99 303 187 180 163 336 29 241 275 294 258 296 96 140 169 195 194 189 189 181 181 176 176 183 180 182 196 195 193 196 202 202 209 220 234 226 230 246 238
206 130 214 261 30 297 219 272 94 7 210 262 287 282 245 250 244 229 230 215 220 210 195 192 188 185 185 181 181 184 186 191 195 194 193 198 206 215 222 223 230 239 252 245
143 117 219 66 205 191 141 268 261 134 155 178 291 276 223 245 237 213 227 226 217 214 208 198 192 188 186 182 180 186 187 188 192 189 193 200 211 217 214 216 231 236 243 242
204 147 204 227 263 281 232 200 153 118 265 225 148 275 251 256 211 202 228 223 215 213 207 198 189 181 184 188 186 191 189 190 191 190 189 200 207 214 217 219 230 241 237 239
176 236 24 320 331 322 248 220 185 131 84 228 142 261 296 292 320 302 283 249 228 215 200 193 184 191 191 190 188 190 192 196 192 187 188 198 205 207 215 220 229 230 230 242
80 209 178 192 205 157 193 208 202 145 128 215 227 270 277 285 296 302 287 274 249 212 202 194 192 198 194 193 190 189 194 193 192 194 193 197 201 204 212 217 221 216 220 234
142 221 234 246 246 206 222 194 193 195 211 186 266 222 261 274 274 287 277 286 276 224 207 201 198 198 196 193 194 193 192 190 189 195 197 205 202 205 212 213 214 217 225 231
180 253 266 273 266 259 260 232 216 219 239 257 266 278 278 271 272 278 295 299 294 252 218 206 201 194 198 199 198 194 194 194 186 197 203 196 195 200 211 208 209 213 229 235
157 168 128 256 239 293 289 214 212 219 200 195 212 248 251 271 302 319 310 296 284 299 227 203 204 201 202 200 193 197 193 181 191 197 196 196 197 200 208 206 208 213 222 229
161 162 141 224 29 236 255 258 226 214 237 211 251 248 217 251 274 271 296 300 314 301 290 227 213 208 205 191 191 187 176 188 193 197 196 196 198 205 198 198 208 215 212 226
182 132 292 177 210 295 296 270 189 184 264 214 222 247 199 13 350 291 252 288 288 294 300 282 230 208 194 186 185 178 180 189 195 202 200 197 195 200 200 207 206 207 207 225
86 78 149 125 193 236 235 231 142 100 279 229 174 174 155 95 48 263 290 293 300 307 305 305 293 213 189 200 172 178 189 190 204 204 203 193 190 200 203 204 203 199 200 215
131 66 189 210 236 276 247 192 154 198 258 187 158 170 164 178 196 224 299 314 292 256 299 311 319 239 224 181 170 194 193 206 206 192 184 186 192 198 200 194 187 196 209 218
165 168 189 133 182 267 180 84 180 216 316 180 190 195 184 223 270 269 282 301 316 307 291 278 270 262 245 199 184 203 211 209 178 176 188 196 195 202 197 190 195 201 197 212
208 186 182 182 203 220 200 202 209 183 182 211 197 199 193 230 241 253 257 296 307 303 291 272 252 255 240 210 198 213 225 179 181 185 198 197 195 200 188 189 192 195 195 203
228 163 197 124 223 235 222 230 201 198 208 198 199 199 205 245 251 253 274 281 284 281 284 256 252 255 260 226 212 225 193 183 186 201 201 194 197 198 195 198 196 199 201 207
196 152 191 265 257 274 248 217 234 226 184 181 183 199 222 224 256 232 254 260 259 266 271 255 246 242 246 234 235 218 192 183 199 205 202 201 200 204 203 208 200 206 213 201
188 185 189 230 205 222 212 154 136 132 166 201 210 245 243 213 238 245 259 262 258 264 263 266 258 254 258 231 235 219 202 195 198 205 203 202 198 199 198 204 222 227 218 213